Probability
0 0 0 0 0 0 0 0 0 0 0 0 0 0 0 0 0 0 0 0 0 0 1 4 7 10 12 12 11 9 9 9 9 10 11 10 8 6 4 3 3 3 3 3 4 4 3 1 0
0 0 0 0 0 0 0 0 0 0 0 0 0 0 0 0 0 0 0 0 0 0 1 4 7 10 13 13 12 9 8 8 8 9 11 10 9 7 5 3 3 3 3 3 4 4 3 1 0
0 0 0 0 0 0 0 0 0 0 0 0 0 0 0 0 0 0 0 0 1 1 1 4 8 11 13 14 14 12 10 8 7 8 9 9 8 8 6 5 4 3 3 4 4 4 3 2 1
0 0 0 0 0 0 0 0 0 0 0 0 0 0 0 0 0 0 0 0 1 2 2 5 9 12 14 15 15 14 12 10 8 7 8 8 7 7 7 6 5 4 3 3 4 4 3 3 2
0 0 0 0 0 0 0 0 0 0 0 0 0 0 0 0 0 0 0 0 1 2 2 4 8 11 13 14 14 14 13 11 9 8 8 9 8 7 6 6 5 4 3 3 3 3 3 3 3
0 0 0 0 0 0 0 0 0 0 0 0 0 0 0 0 1 2 2 2 1 1 2 3 6 8 11 12 11 11 12 13 12 11 10 9 9 7 5 4 4 4 4 3 3 3 3 3 3
0 0 0 0 0 0 0 0 0 0 0 0 0 0 0 0 2 3 4 5 5 3 3 4 5 5 7 9 9 9 11 13 14 13 11 9 7 6 4 3 3 4 4 4 3 3 3 3 3
0 0 0 0 0 0 0 0 0 0 0 0 0 0 0 0 1 2 3 6 7 6 6 7 5 5 6 8 8 7 9 11 13 11 9 7 6 4 3 3 3 3 4 3 3 3 3 3 3
0 0 0 0 0 0 0 0 0 0 0 0 0 0 0 0 0 0 2 4 6 6 7 8 7 7 8 9 8 8 8 8 9 9 8 6 4 3 3 3 3 3 3 3 3 3 3 3 3
0 0 0 0 0 0 0 0 0 0 0 0 0 0 0 0 0 0 1 1 2 4 5 6 7 8 9 10 10 10 10 9 9 9 8 6 5 4 4 4 2 2 3 3 3 3 3 3 3
0 0 0 0 0 0 0 0 0 0 0 0 0 0 0 0 0 0 0 0 0 1 2 3 5 8 9 10 11 12 13 12 11 10 9 7 6 6 6 6 4 1 1 2 3 3 3 3 3
0 0 0 0 0 0 0 0 0 0 0 0 0 0 0 0 0 0 0 0 0 0 0 1 2 5 8 9 10 12 13 13 13 11 9 7 7 7 7 7 4 2 1 1 1 2 2 3 3
0 0 0 0 0 0 0 0 0 0 0 0 0 0 0 0 0 0 0 0 0 0 0 1 2 3 6 8 9 11 12 13 13 12 9 7 7 7 7 5 3 1 1 0 0 1 1 1 2
0 0 0 0 0 0 0 0 0 0 0 0 0 0 0 0 0 0 0 0 0 0 0 1 2 3 4 6 7 9 11 13 13 11 8 7 6 6 6 5 3 1 0 0 0 0 0 0 1
0 0 0 0 0 0 0 0 0 0 0 0 0 0 0 0 0 0 0 0 0 0 0 1 2 3 3 4 5 7 10 12 12 10 8 6 6 6 6 6 4 2 0 0 0 0 0 0 0
0 0 0 0 0 0 0 0 0 0 0 0 0 0 0 0 0 0 0 0 0 0 0 0 1 3 3 4 5 6 8 11 11 9 7 6 6 6 6 5 4 2 1 0 0 0 0 0 0
0 0 0 0 0 0 0 0 0 0 0 0 0 0 0 0 0 0 0 0 0 0 0 0 1 3 4 4 5 6 7 9 10 9 7 6 6 6 6 5 4 2 1 0 0 0 0 0 0
0 0 0 0 0 0 0 0 0 0 0 0 0 0 0 0 0 0 0 0 0 0 0 0 1 2 4 4 4 5 6 7 8 7 6 5 5 5 4 4 3 3 1 0 0 0 0 0 1
0 0 0 0 0 0 0 0 0 0 0 0 0 0 0 0 0 0 0 0 0 0 0 0 0 1 2 3 3 3 5 6 6 5 4 4 4 4 3 3 3 3 2 1 0 0 0 0 1
0 0 0 0 0 0 0 0 0 0 0 0 0 0 0 0 0 0 0 0 0 0 0 0 0 0 0 1 1 2 3 4 4 3 2 3 3 3 3 3 3 3 2 1 0 0 0 0 1
0 0 0 0 0 0 0 0 0 0 0 0 0 0 0 0 0 0 0 0 0 0 0 0 0 0 0 0 0 0 1 1 1 1 1 1 2 2 3 4 4 3 2 0 0 0 0 0 0
0 0 0 0 0 0 0 0 0 0 0 0 0 0 0 0 0 0 0 0 0 0 0 0 0 0 0 0 0 0 0 0 0 0 0 0 1 1 2 3 4 3 2 1 1 0 0 0 0
0 0 0 0 0 0 0 0 0 0 0 0 0 0 0 0 0 0 0 0 0 0 0 0 0 0 0 0 0 0 0 0 0 0 0 0 0 0 0 1 2 2 2 2 2 1 0 0 0
0 0 0 0 0 0 0 0 0 0 0 0 0 0 0 0 0 0 0 0 0 0 0 0 0 0 0 0 0 0 0 0 0 0 0 0 0 0 0 0 0 1 1 1 1 1 0 0 0
0 0 0 0 0 0 0 0 0 0 0 0 0 0 0 0 0 0 0 0 0 0 0 0 0 0 0 0 0 0 0 0 0 0 0 0 0 0 0 0 0 0 0 0 0 0 0 0 0
0 0 0 0 0 0 0 0 0 0 0 0 0 0 0 0 0 0 0 0 0 0 0 0 0 0 0 0 0 0 0 0 0 0 0 0 0 0 0 0 0 0 0 0 0 0 0 0 0
0 0 0 0 0 0 0 0 0 0 0 0 0 0 0 0 0 0 0 0 0 0 0 0 0 0 0 0 0 0 0 0 0 0 0 0 0 0 0 0 0 0 0 0 0 0 0 0 0
0 0 0 0 0 0 0 0 0 0 0 0 0 0 0 0 0 0 0 0 0 0 0 0 0 0 0 0 0 0 0 0 0 0 0 0 0 0 0 0 0 0 0 0 0 0 0 0 0
0 0 0 0 0 0 0 0 0 0 0 0 0 0 0 0 0 0 0 0 0 0 0 0 0 0 0 0 0 0 0 0 0 0 0 0 0 0 0 0 0 0 0 0 0 0 0 0 0
0 0 0 0 0 0 0 0 0 0 0 0 0 0 0 0 0 0 0 0 0 0 0 0 0 0 0 0 0 0 0 0 0 0 0 0 0 0 0 0 0 0 0 0 0 0 0 0 0
Wind_Speed
3 1 2 3 4 3 5 4 3 2 1 1 2 1 1 1 1 2 4 2 1 3 5 5 4 5 6 7 7 7 7 7 7 8 8 7 7 7 7 7 7 7 8 8 9 10 10 11 11
2 1 3 3 5 6 5 4 4 2 0 1 0 0 1 0 2 3 2 2 1 2 4 5 4 5 6 6 7 7 6 6 6 8 7 7 7 7 7 6 6 7 7 8 9 9 10 11 10
1 1 2 3 5 6 5 2 1 0 1 1 1 1 1 1 2 2 3 1 1 3 3 4 4 5 5 6 6 6 6 6 6 7 7 7 7 7 7 6 6 6 7 8 9 9 10 10 9
2 2 1 3 6 6 4 2 1 1 1 1 1 1 1 3 4 4 3 1 1 3 3 4 4 4 5 5 5 6 6 6 5 6 7 7 7 7 7 6 6 7 7 7 8 9 9 9 9
1 2 4 5 7 5 3 4 2 2 1 0 0 1 1 3 4 4 2 1 2 2 2 4 4 4 4 4 4 5 5 5 5 5 6 6 6 6 6 6 6 7 7 7 8 8 8 8 8
2 3 5 8 8 6 4 3 4 3 2 1 1 1 1 3 4 4 3 2 2 3 2 3 4 3 3 4 4 4 4 4 4 5 5 5 5 5 5 6 6 6 7 7 7 7 7 7 7
3 3 5 6 6 6 4 3 3 4 3 3 3 3 2 2 4 3 3 3 3 3 2 2 2 3 3 3 4 4 4 4 5 4 5 5 5 5 5 6 6 6 6 6 6 6 7 7 7
1 2 5 6 7 6 2 2 2 3 2 2 2 3 1 3 3 2 3 3 3 3 2 2 1 1 2 2 3 3 4 5 5 5 5 5 5 5 6 5 5 5 5 5 5 5 6 6 6
2 4 6 6 6 3 2 2 1 1 0 1 1 3 4 3 2 3 3 3 3 3 3 2 1 1 1 1 2 3 3 4 4 4 5 4 3 4 4 5 5 5 5 4 5 5 5 5 6
2 5 5 2 2 2 2 1 1 2 2 2 2 2 3 2 2 2 2 2 3 3 3 2 2 1 0 1 1 2 2 2 2 2 3 2 2 2 3 5 5 4 4 4 5 5 5 3 3
1 3 2 2 1 1 2 2 2 4 4 4 4 3 0 1 1 1 1 2 2 2 2 2 2 1 0 0 0 1 1 1 2 2 2 2 2 2 2 2 3 3 3 2 3 4 2 1 1
2 1 2 1 1 2 3 3 2 4 5 3 2 1 1 1 2 2 2 2 2 3 3 2 2 1 1 0 0 1 1 1 1 2 2 2 1 2 2 2 2 2 1 1 1 1 1 1 1
2 2 1 1 0 0 1 3 4 5 5 3 2 1 3 3 3 3 2 2 2 3 3 2 2 1 1 0 0 1 1 1 2 2 2 2 2 2 2 2 2 2 2 2 2 1 1 1 1
1 1 1 2 1 1 2 4 5 7 4 4 3 4 4 4 4 3 2 3 2 3 3 3 1 2 1 0 0 1 1 1 2 2 2 2 2 2 2 2 2 2 2 2 2 3 2 1 1
2 1 1 2 2 2 3 5 7 7 5 6 6 5 5 5 4 4 4 3 3 3 3 3 2 1 1 1 0 0 1 1 1 1 2 2 2 2 2 2 1 1 2 2 2 2 2 2 1
2 3 4 1 2 2 5 9 6 4 5 7 7 6 5 5 5 4 4 3 3 3 3 3 2 1 1 1 1 0 1 1 1 1 1 2 2 2 2 2 1 1 1 2 2 2 2 2 1
3 4 6 4 1 2 6 9 5 3 5 7 7 7 6 5 5 5 4 4 3 3 3 3 2 2 1 1 1 0 1 1 1 1 1 1 2 2 2 2 1 2 2 2 2 2 2 2 1
4 5 6 6 1 3 7 10 8 5 6 7 7 7 6 6 6 4 4 3 3 2 2 2 2 1 1 0 0 1 1 1 1 1 1 1 1 1 2 2 2 2 2 2 2 3 2 1 1
4 5 8 7 3 5 9 12 11 8 7 8 8 8 7 7 5 3 3 2 2 2 2 1 2 1 1 0 1 1 1 1 0 0 1 1 1 1 1 1 2 2 2 2 3 2 3 2 1
4 6 8 6 3 5 9 13 12 9 9 8 9 8 8 7 4 3 3 2 2 2 1 1 2 1 1 1 1 1 1 1 0 0 1 1 1 1 1 1 2 2 2 2 2 2 2 2 2
5 7 7 7 6 5 9 11 9 6 6 6 7 7 7 7 6 4 3 2 2 2 2 2 2 1 1 1 1 0 1 1 1 0 0 1 1 1 1 2 2 2 2 3 3 3 3 3 3
6 5 6 6 6 5 4 9 7 5 5 5 6 5 5 5 5 4 3 3 3 3 3 2 2 1 1 1 1 2 2 2 2 1 1 1 1 1 1 2 2 2 2 3 3 3 2 3 3
3 2 4 6 6 7 6 9 7 3 6 6 5 5 4 4 4 4 4 4 4 3 3 3 2 1 1 1 2 3 2 2 1 1 2 1 1 1 0 1 2 2 2 2 3 3 3 3 3
2 1 2 4 5 8 8 9 9 5 6 5 3 2 2 3 3 4 3 3 3 2 2 2 2 2 1 1 1 2 3 2 2 2 2 2 1 1 1 1 2 2 2 3 3 3 4 3 4
2 2 3 3 5 7 3 8 9 3 3 3 3 2 2 3 3 3 3 3 3 2 2 2 2 2 1 1 2 2 3 3 3 2 2 2 1 1 2 2 2 2 3 3 3 3 4 4 4
4 5 4 5 6 5 4 9 5 2 2 2 2 2 2 3 3 3 3 3 3 3 3 2 3 2 2 2 2 2 2 2 1 2 2 2 2 2 2 2 2 2 3 3 3 3 3 3 4
4 5 3 3 4 7 8 7 7 3 3 3 2 2 3 4 3 3 3 3 2 3 3 3 3 3 3 2 2 2 2 2 2 2 2 2 2 2 2 2 3 2 2 2 3 3 3 3 4
3 3 3 4 5 8 8 8 6 4 5 4 3 3 4 4 4 3 3 3 2 2 3 2 2 3 3 2 2 2 2 2 2 2 2 2 2 2 2 2 2 2 2 2 2 3 3 4 4
5 5 5 4 5 6 8 7 1 4 3 3 4 3 4 4 4 3 3 3 2 2 2 2 2 2 2 2 2 2 2 2 2 2 2 2 2 2 2 2 2 2 2 2 2 3 3 4 4
7 7 7 6 6 7 8 9 1 2 2 3 4 4 4 5 4 4 3 3 3 2 2 2 2 2 2 2 2 2 2 2 2 2 2 2 2 2 2 2 2 2 2 2 3 3 3 4 4
Wind_Direction
341 312 252 230 211 212 221 216 219 196 194 17 5 314 244 293 330 46 48 42 24 148 155 158 142 133 126 122 120 118 121 126 129 129 128 126 126 125 124 116 111 109 109 107 104 100 98 96 92
333 277 227 224 228 214 210 218 212 244 298 132 29 270 195 94 10 22 32 7 7 139 152 157 129 129 124 123 123 123 121 122 129 130 127 129 128 125 126 122 114 112 112 113 110 106 102 98 95
256 282 234 207 223 228 206 166 172 100 27 233 173 346 318 345 357 340 351 333 129 135 142 130 110 123 123 125 130 130 129 127 128 130 126 125 126 123 121 120 116 113 113 114 111 108 104 100 98
227 176 195 222 216 234 244 231 200 173 124 34 185 134 93 22 351 349 353 18 116 127 125 112 97 109 119 123 129 131 133 134 132 130 127 123 123 121 118 115 112 113 111 110 110 106 104 101 99
215 200 199 216 229 231 248 279 261 240 206 83 210 207 145 44 15 17 36 71 103 112 110 118 101 104 109 114 123 128 130 130 130 128 125 123 122 121 118 116 112 109 108 108 106 108 108 105 103
177 199 214 221 224 226 242 267 241 241 239 242 260 245 94 45 20 21 41 65 91 105 102 113 95 99 111 110 110 118 124 124 121 119 120 120 123 121 117 117 117 112 104 104 106 110 110 109 105
210 200 222 225 227 234 245 251 248 238 238 267 270 229 177 45 16 20 48 61 62 68 83 96 123 121 110 106 105 104 106 108 105 107 106 107 114 111 107 110 112 112 109 106 104 109 115 112 107
255 194 209 219 223 233 233 220 283 287 278 342 285 246 254 357 4 40 59 56 52 48 46 59 72 107 146 147 109 95 96 93 93 97 94 99 113 118 113 117 113 113 109 107 104 106 118 116 109
238 217 222 221 217 208 172 197 215 340 330 329 350 353 16 20 47 56 47 34 29 22 15 16 31 56 88 139 129 130 114 104 109 109 96 116 148 144 138 121 114 122 117 112 109 105 104 113 110
226 223 228 244 227 188 160 222 235 194 230 251 256 339 15 44 64 64 36 355 352 352 347 355 352 2 45 89 153 163 157 148 155 147 138 145 137 129 125 109 100 108 118 122 116 107 111 122 133
166 221 213 231 214 184 206 247 268 231 250 252 255 262 338 39 47 32 331 312 308 315 335 339 330 337 4 83 177 152 149 148 159 147 142 138 135 134 137 131 124 118 121 136 133 139 145 145 140
150 244 246 255 287 242 248 245 251 257 259 292 279 268 213 235 257 263 281 303 316 322 324 333 332 331 340 351 156 157 140 146 143 138 146 149 144 139 140 143 143 143 144 135 135 124 121 143 143
196 223 289 295 33 325 250 249 258 260 257 276 279 248 240 243 255 264 275 291 318 322 322 317 320 317 325 69 167 170 176 169 157 151 155 157 151 150 146 156 154 157 150 155 151 139 134 145 139
139 152 265 292 247 239 234 260 254 258 254 251 250 249 252 253 259 272 278 277 291 304 313 310 302 297 296 237 195 194 192 180 169 165 161 162 158 160 158 160 166 168 165 165 170 166 159 159 152
137 176 262 264 253 226 250 262 240 253 247 251 255 255 258 260 259 256 260 263 271 286 301 308 291 286 279 249 223 215 184 172 165 161 161 157 157 164 159 159 162 167 173 173 165 160 165 160 164
189 216 239 234 253 241 239 257 255 254 243 251 256 259 261 259 259 261 264 266 272 284 295 301 303 277 272 265 229 199 170 135 130 131 137 139 139 149 153 153 165 170 175 180 172 172 174 173 180
209 238 251 253 239 253 237 259 272 276 248 256 260 261 261 264 263 259 259 261 267 267 276 292 294 271 283 282 240 167 164 134 124 109 97 121 139 151 151 153 154 163 171 182 179 182 183 190 191
232 246 255 261 285 256 246 257 269 265 257 260 263 262 260 260 260 258 258 257 259 259 266 285 282 268 271 258 234 182 150 125 120 114 101 120 131 147 154 149 150 157 164 172 185 189 183 189 190
249 251 263 272 289 271 258 266 272 264 258 259 259 259 259 259 268 265 260 252 246 250 261 278 283 259 178 201 224 221 207 190 142 92 112 135 136 154 146 142 156 166 174 179 179 181 178 178 176
237 251 268 277 274 271 273 272 270 261 253 256 257 257 257 262 265 268 269 254 243 242 253 276 284 266 219 225 233 235 207 194 196 18 161 159 167 174 163 157 170 177 174 170 166 162 184 191 196
245 252 266 278 296 258 278 270 250 245 243 254 257 261 264 263 259 256 256 250 249 248 253 259 266 257 242 217 175 118 134 121 148 252 226 209 209 190 181 183 175 189 186 179 182 194 195 201 204
253 258 260 267 273 268 266 281 257 242 246 252 258 262 265 265 263 263 263 259 259 259 253 247 254 250 242 198 186 189 198 189 211 225 220 221 223 207 221 202 191 190 200 197 196 201 216 208 205
252 290 253 250 255 266 242 259 266 219 249 256 263 266 271 274 269 268 268 264 259 258 251 244 242 246 248 225 209 212 224 218 199 195 200 209 218 214 220 245 216 208 216 215 210 210 215 223 223
210 236 229 226 234 250 237 242 268 232 243 258 275 303 305 297 284 281 285 283 270 265 252 241 237 241 239 235 227 228 233 222 200 196 197 218 235 229 229 246 240 227 228 223 223 223 220 227 231
219 240 259 237 227 245 207 237 257 256 252 266 280 301 313 317 306 297 294 288 278 269 260 247 238 254 258 250 243 244 242 227 216 214 216 228 244 254 250 260 247 234 235 234 232 231 231 230 232
220 233 244 263 266 274 232 243 257 277 287 283 282 295 323 334 330 313 298 288 280 267 255 247 241 247 251 247 252 253 250 237 236 235 238 240 255 261 261 259 263 252 241 238 235 234 241 238 235
212 224 263 268 287 271 253 254 266 239 248 248 264 303 318 326 328 324 319 304 288 271 256 249 245 244 247 251 257 255 251 256 261 253 245 250 273 287 273 260 253 259 252 247 242 240 243 246 243
257 208 207 227 253 262 265 258 254 218 227 237 262 288 310 322 322 323 323 312 293 276 268 256 253 249 246 247 253 263 264 260 257 248 246 260 269 269 265 274 273 266 261 252 247 254 252 248 249
195 206 220 230 248 258 271 266 251 227 216 231 250 273 304 312 308 310 313 311 301 292 284 273 267 269 267 261 260 264 267 265 260 260 262 260 256 257 254 257 262 257 255 255 249 251 254 251 250
239 225 209 227 240 243 263 270 98 218 246 256 267 282 300 304 302 305 311 314 303 292 286 276 273 275 284 284 272 266 267 262 254 261 271 272 266 258 251 244 246 250 248 246 248 255 256 252 247